Terug naar catalogus

STARLINK-36690

ActiefCommunicatieVLEO
NORAD 67913·PAYLOAD·🇺🇸 United States

Gelanceerd Feb 22, 2026 vanaf Vandenberg Space Force Base

Loading…

Volgende Passages (komende 24 uur)

TLE

VersSource: CelesTrak SupGP

Epoch: Sep 14, 2026, 23:23 UTC

1 67913C 26036K   26257.97479167  .00033980  00000+0  12307-2 0  2579
2 67913  43.0023 256.2116 0001342 265.4128  21.1390 15.27561811    15

Volg STARLINK-36690 in realtime met AllMySat

Download on the App Store